EW7007 Weather Reports


time (UTC)temp
F
wind
direction
speed
knots
gust
knots
rain 1hr
in
rain 24hr
in
rain mn
in
humidity
%
barometer
mb
20260507180222 72 231 4.3 10.4 0.00 0.00 0.00 31 1009.7
20260507175723 72 250 2.6 13.0 0.00 0.00 0.00 31 1009.7
20260507175223 72 245 5.2 11.3 0.00 0.00 0.00 31 1009.7
20260507174225 71 246 2.6 8.7 0.00 0.00 0.00 33 1009.8
20260507173722 71 239 7.0 14.8 0.00 0.00 0.00 32 1009.9
20260507173222 70 232 2.6 12.2 0.00 0.00 0.00 33 1009.9
20260507172725 70 226 5.2 10.4 0.00 0.00 0.00 33 1010.1
20260507172222 70 219 5.2 13.9 0.00 0.00 0.00 33 1010.2
20260507171722 69 201 5.2 10.4 0.00 0.00 0.00 33 1010.2
20260507170723 69 244 7.0 13.9 0.00 0.00 0.00 32 1010.5
20260507170222 70 226 2.6 10.4 0.00 0.00 0.00 34 1010.5
20260507165724 69 201 3.5 13.0 0.00 0.00 0.00 34 1010.6
20260507164722 68 211 5.2 10.4 0.00 0.00 0.00 34 1010.7
20260507163722 67 223 5.2 10.4 0.00 0.00 0.00 35 1010.6
20260507163223 66 232 5.2 11.3 0.00 0.00 0.00 36 1010.6
20260507162724 66 249 6.1 13.0 0.00 0.00 0.00 36 1010.7
20260507162223 66 220 6.1 13.0 0.00 0.00 0.00 38 1010.8
20260507161722 66 209 5.2 13.0 0.00 0.00 0.00 39 1010.8
20260507160224 65 233 5.2 10.4 0.00 0.00 0.00 40 1011.0
20260507155722 65 168 4.3 10.4 0.00 0.00 0.00 40 1011.0
20260507155222 64 200 4.3 10.4 0.00 0.00 0.00 41 1011.1
20260507154723 64 212 5.2 12.2 0.00 0.00 0.00 41 1011.2
20260507154224 64 204 5.2 13.0 0.00 0.00 0.00 42 1011.3
20260507153723 63 241 7.0 13.0 0.00 0.00 0.00 42 1011.4
20260507153224 63 229 3.5 7.8 0.00 0.00 0.00 44 1011.4
20260507152722 62 209 2.6 10.4 0.00 0.00 0.00 45 1011.5
20260507152222 62 206 5.2 11.3 0.00 0.00 0.00 44 1011.6
20260507151722 61 242 4.3 8.7 0.00 0.00 0.00 47 1011.6
20260507151224 60 217 3.5 7.8 0.00 0.00 0.00 48 1011.7
20260507150222 59 188 5.2 8.7 0.00 0.00 0.00 51 1012.0
20260507145724 59 201 4.3 8.7 0.00 0.00 0.00 53 1012.1
20260507145224 58 229 5.2 10.4 0.00 0.00 0.00 53 1012.2
20260507144722 58 205 4.3 7.0 0.00 0.00 0.00 55 1012.2
20260507143722 57 257 2.6 10.4 0.00 0.00 0.00 57 1012.4
20260507142724 57 215 4.3 7.8 0.00 0.00 0.00 58 1012.5
20260507142222 56 192 2.6 5.2 0.00 0.00 0.00 60 1012.5
20260507141723 55 230 2.6 8.7 0.00 0.00 0.00 61 1012.6
20260507141224 55 218 4.3 8.7 0.00 0.00 0.00 62 1012.6
20260507140724 54 273 4.3 7.0 0.00 0.00 0.00 63 1012.7
20260507140223 54 212 5.2 10.4 0.00 0.00 0.00 64 1012.7
20260507135724 53 233 2.6 7.0 0.00 0.00 0.00 66 1012.8
20260507135223 53 215 2.6 10.4 0.00 0.00 0.00 66 1012.9
20260507134722 52 246 3.5 7.8 0.00 0.00 0.00 68 1012.9
20260507134224 52 238 2.6 8.7 0.00 0.00 0.00 69 1012.9
20260507133722 51 238 4.3 7.8 0.00 0.00 0.00 70 1013.0
20260507133222 51 233 5.2 8.7 0.00 0.00 0.00 71 1013.0
20260507132724 50 198 3.5 7.8 0.00 0.00 0.00 72 1013.1
20260507132223 50 223 2.6 10.4 0.00 0.00 0.00 74 1013.0
20260507131723 49 227 4.3 7.8 0.00 0.00 0.00 74 1013.0
20260507131224 49 232 5.2 10.4 0.00 0.00 0.00 75 1013.1
20260507130723 48 245 3.5 7.0 0.00 0.00 0.00 76 1013.2
20260507130223 48 234 2.6 7.0 0.00 0.00 0.00 77 1013.2
20260507125724 48 226 3.5 10.4 0.00 0.00 0.00 77 1013.3
20260507125222 47 203 4.3 8.7 0.00 0.00 0.00 78 1013.3
20260507124224 47 242 4.3 7.8 0.00 0.00 0.00 80 1013.2
20260507123724 47 225 4.3 7.0 0.00 0.00 0.00 80 1013.2
20260507123222 46 226 1.7 6.1 0.00 0.00 0.00 82 1013.1
20260507122724 46 214 2.6 5.2 0.00 0.00 0.00 82 1013.2
20260507121723 45 197 2.6 6.1 0.00 0.00 0.00 84 1013.2
20260507120723 44 209 1.7 4.3 0.00 0.00 0.00 84 1013.2
20260507120224 44 220 0.9 2.6 0.00 0.00 0.00 84 1013.3
20260507115724 44 219 0.9 2.6 0.00 0.00 0.00 84 1013.3
20260507115222 44 218 1.7 4.3 0.00 0.00 0.00 84 1013.3
20260507114723 43 233 1.7 2.6 0.00 0.00 0.00 84 1013.4
20260507113720 43 229 1.7 2.6 0.00 0.00 0.00 83 1013.5
20260507113220 44 232 0.9 2.6 0.00 0.00 0.00 83 1013.5
20260507112725 44 228 0.9 2.6 0.00 0.00 0.00 83 1013.4
20260507112221 44 227 1.7 2.6 0.00 0.00 0.00 83 1013.5
20260507111720 44 227 1.7 4.3 0.00 0.00 0.00 82 1013.5
20260507111225 44 227 1.7 4.3 0.00 0.00 0.00 82 1013.4
20260507110720 44 227 0.9 2.6 0.00 0.00 0.00 82 1013.5
20260507105725 44 230 0.9 2.6 0.00 0.00 0.00 81 1013.4
20260507105220 44 230 1.7 4.3 0.00 0.00 0.00 81 1013.4
20260507104719 44 226 1.7 5.2 0.00 0.00 0.00 81 1013.5
20260507104223 44 222 2.6 4.3 0.00 0.00 0.00 80 1013.5
20260507103719 44 199 2.6 5.2 0.00 0.00 0.00 80 1013.5
20260507103220 44 234 2.6 5.2 0.00 0.00 0.00 80 1013.4
20260507102723 44 213 1.7 4.3 0.00 0.00 0.00 79 1013.4
20260507102219 45 210 2.6 6.1 0.00 0.00 0.00 79 1013.5
20260507101720 45 231 2.6 5.2 0.00 0.00 0.00 79 1013.5
20260507101225 45 216 2.6 5.2 0.00 0.00 0.00 78 1013.5
20260507095725 45 239 2.6 5.2 0.00 0.00 0.00 77 1013.6
20260507095220 46 211 2.6 5.2 0.00 0.00 0.00 76 1013.7
20260507094720 46 212 1.7 4.3 0.00 0.00 0.00 76 1013.7
20260507094223 46 222 2.6 7.0 0.00 0.00 0.00 76 1013.7
20260507093720 46 234 1.7 5.2 0.00 0.00 0.00 76 1013.8
20260507093221 46 259 1.7 5.2 0.00 0.00 0.00 76 1013.8
20260507092219 46 232 2.6 5.2 0.00 0.00 0.00 76 1013.8
20260507091720 46 232 1.7 5.2 0.00 0.00 0.00 76 1013.9
20260507091224 46 241 1.7 5.2 0.00 0.00 0.00 76 1013.9
20260507090720 46 216 1.7 4.3 0.00 0.00 0.00 76 1013.9
20260507085725 46 228 0.9 4.3 0.00 0.00 0.00 75 1014.0
20260507084719 46 217 1.7 5.2 0.00 0.00 0.00 75 1014.2
20260507084225 46 221 1.7 4.3 0.00 0.00 0.00 74 1014.3
20260507083221 47 229 0.9 2.6 0.00 0.00 0.00 73 1014.3
20260507082724 47 228 1.7 2.6 0.00 0.00 0.00 73 1014.4
20260507081720 47 223 1.7 4.3 0.00 0.00 0.00 72 1014.5
20260507080220 47 220 1.7 2.6 0.00 0.00 0.00 71 1014.7
20260507075725 47 219 0.9 2.6 0.00 0.00 0.00 70 1014.7
20260507075221 48 225 1.7 4.3 0.00 0.00 0.00 70 1014.8
20260507073222 48 225 2.6 5.2 0.00 0.00 0.00 69 1015.0
20260507072725 48 240 1.7 4.3 0.00 0.00 0.00 68 1015.1
20260507072220 48 250 1.7 2.6 0.00 0.00 0.00 68 1015.1
20260507071221 48 229 1.7 4.3 0.00 0.00 0.00 67 1015.2
20260507070720 48 228 2.6 5.2 0.00 0.00 0.00 66 1015.3
20260507070220 48 227 1.7 2.6 0.00 0.00 0.00 65 1015.3
20260507065722 48 227 1.7 2.6 0.00 0.00 0.00 64 1015.4
20260507065219 48 227 0.9 4.3 0.00 0.00 0.00 64 1015.5
20260507064720 48 235 0.9 2.6 0.00 0.00 0.00 63 1015.5
20260507063720 48 235 0.9 2.6 0.00 0.00 0.00 61 1015.6
20260507063219 49 235 0.9 2.6 0.00 0.00 0.00 60 1015.7
20260507062724 49 235 0.9 2.6 0.00 0.00 0.00 60 1015.7
20260507062220 49 235 0.9 2.6 0.00 0.00 0.00 59 1015.7
20260507061720 49 235 2.6 5.2 0.00 0.00 0.00 58 1015.8
20260507061222 49 213 1.7 2.6 0.00 0.00 0.00 58 1015.8
20260507060719 49 203 2.6 4.3 0.00 0.00 0.00 57 1015.8
20260507055722 49 226 2.6 6.1 0.00 0.00 0.00 55 1015.8
20260507055220 50 208 1.7 2.6 0.00 0.00 0.00 55 1015.8
20260507054720 50 207 0.9 4.3 0.00 0.00 0.00 55 1015.8
20260507054224 50 207 1.7 2.6 0.00 0.00 0.00 55 1015.8
20260507053220 51 224 2.6 4.3 0.00 0.00 0.00 53 1015.8
20260507052724 51 238 2.6 7.8 0.00 0.00 0.00 53 1015.8
20260507051719 51 247 1.7 6.1 0.00 0.00 0.00 51 1015.9
20260507051224 51 233 1.7 6.1 0.00 0.00 0.00 51 1015.9
20260507050720 51 222 2.6 6.1 0.00 0.00 0.00 50 1015.9
20260507050219 51 223 1.7 4.3 0.00 0.00 0.00 49 1016.0
20260507045724 51 230 1.7 8.7 0.00 0.00 0.00 49 1016.0
20260507045220 51 210 2.6 6.1 0.00 0.00 0.00 48 1016.0
20260507044720 50 240 2.6 4.3 0.00 0.00 0.00 48 1016.1
20260507043720 50 202 2.6 6.1 0.00 0.00 0.00 49 1016.1
20260507043220 49 227 1.7 2.6 0.00 0.00 0.00 49 1016.1
20260507042722 49 224 1.7 5.2 0.00 0.00 0.00 50 1016.2
20260507042220 48 239 1.7 2.6 0.00 0.00 0.00 51 1016.2
20260507041720 48 240 0.9 2.6 0.00 0.00 0.00 53 1016.2
20260507041224 48 240 0.0 0.0 0.00 0.00 0.00 53 1016.2
20260507040719 48 240 0.0 0.0 0.00 0.00 0.00 54 1016.2
20260507040219 48 240 0.0 0.9 0.00 0.00 0.00 55 1016.2
20260507035219 48 240 0.0 0.9 0.00 0.00 0.00 54 1016.4
20260507034719 48 240 0.0 0.9 0.00 0.00 0.00 54 1016.4
20260507034221 48 240 0.0 0.0 0.00 0.00 0.00 53 1016.3
20260507033720 48 240 0.0 0.0 0.00 0.00 0.00 51 1016.3
20260507033220 48 240 0.0 0.0 0.00 0.00 0.00 51 1016.3
20260507032722 48 240 0.0 0.0 0.00 0.00 0.00 50 1016.3
20260507032220 49 240 0.0 0.0 0.00 0.00 0.00 50 1016.3
20260507031720 49 240 0.0 0.0 0.00 0.00 0.00 50 1016.3
20260507031224 49 240 0.0 0.0 0.00 0.00 0.00 49 1016.3
20260507030720 50 240 0.0 0.0 0.00 0.00 0.00 48 1016.3
20260507030220 50 240 0.0 0.0 0.00 0.00 0.00 47 1016.4
20260507025724 50 240 0.0 0.0 0.00 0.00 0.00 46 1016.3
20260507025220 51 240 0.0 0.0 0.00 0.00 0.00 45 1016.3
20260507024720 51 240 0.0 0.0 0.00 0.00 0.00 46 1016.3
20260507024224 52 240 0.0 0.0 0.00 0.00 0.00 45 1016.3
20260507023720 52 240 0.0 0.0 0.00 0.00 0.00 44 1016.2
20260507023220 53 240 0.0 0.0 0.00 0.00 0.00 43 1016.2
20260507022722 53 240 0.0 0.0 0.00 0.00 0.00 43 1016.1
20260507022220 54 240 0.0 0.0 0.00 0.00 0.00 41 1016.0
20260507021720 54 240 0.0 0.0 0.00 0.00 0.00 40 1016.0
20260507021221 55 240 0.0 0.0 0.00 0.00 0.00 39 1016.0
20260507020720 55 240 0.0 0.0 0.00 0.00 0.00 38 1016.0
20260507020220 56 240 0.0 0.0 0.00 0.00 0.00 38 1016.0
20260507015723 56 240 0.0 0.0 0.00 0.00 0.00 37 1016.0
20260507015220 57 240 0.0 0.0 0.00 0.00 0.00 36 1015.9
20260507014720 57 240 0.0 0.0 0.00 0.00 0.00 34 1015.9
20260507013720 58 240 0.0 0.0 0.00 0.00 0.00 32 1015.8
20260507013220 58 240 0.0 0.0 0.00 0.00 0.00 31 1015.8
20260507012723 58 240 0.0 0.0 0.00 0.00 0.00 31 1015.8
20260507012220 59 240 0.0 0.0 0.00 0.00 0.00 30 1015.8
20260507010720 59 240 0.0 0.9 0.00 0.00 0.00 29 1015.9
20260507010220 60 240 0.0 2.6 0.00 0.00 0.00 29 1015.9
20260507004720 60 257 0.9 2.6 0.00 0.00 0.00 28 1016.0
20260507004223 60 257 0.0 6.1 0.00 0.00 0.00 27 1016.0
20260507003720 60 242 0.9 1.7 0.00 0.00 0.00 28 1016.0
20260507003220 60 242 0.9 2.6 0.00 0.00 0.00 27 1016.0
20260507002721 60 242 1.7 5.2 0.00 0.00 0.00 28 1016.0
20260507002220 60 262 2.6 5.2 0.00 0.00 0.00 27 1016.1
20260507001720 60 239 0.9 4.3 0.00 0.00 0.00 27 1016.1
20260507001221 61 226 1.7 4.3 0.00 0.00 0.00 27 1016.0
20260507000219 61 309 1.7 2.6 0.00 0.00 0.00 27 1016.1
20260506235723 61 239 0.9 4.3 0.00 0.00 0.00 27 1016.2
20260506235219 61 252 0.0 1.7 0.00 0.00 0.00 26 1016.3
20260506234720 62 250 0.0 2.6 0.00 0.00 0.00 26 1016.3
20260506234223 62 246 0.9 4.3 0.00 0.00 0.00 26 1016.4
20260506233719 63 269 0.9 6.1 0.00 0.00 0.00 25 1016.4
20260506233219 64 259 0.9 2.6 0.00 0.00 0.00 25 1016.4
20260506232721 64 329 1.7 7.0 0.00 0.00 0.00 25 1016.4
20260506231720 64 298 1.7 2.6 0.00 0.00 0.00 24 1016.5
20260506230220 63 245 0.9 6.1 0.00 0.00 0.00 25 1016.4
20260506225723 63 237 0.0 5.2 0.00 0.00 0.00 26 1016.5
20260506225221 63 291 0.9 5.2 0.00 0.00 0.00 26 1016.6
20260506224720 63 305 2.6 5.2 0.00 0.00 0.00 25 1016.6
20260506224223 63 222 1.7 6.1 0.00 0.00 0.00 26 1016.6
20260506223720 63 249 0.9 4.3 0.00 0.00 0.00 25 1016.6
20260506223220 63 250 0.9 2.6 0.00 0.00 0.00 25 1016.7
20260506222723 63 250 1.7 5.2 0.00 0.00 0.00 25 1016.8
20260506222220 64 236 0.9 4.3 0.00 0.00 0.00 24 1016.8
20260506220720 64 325 1.7 2.6 0.00 0.00 0.00 26 1016.9
20260506220220 64 282 1.7 5.2 0.00 0.00 0.00 25 1016.9
20260506215220 65 269 2.6 6.1 0.00 0.00 0.00 24 1017.0
20260506214720 64 275 0.9 2.6 0.00 0.00 0.00 27 1017.0
20260506214220 63 275 0.9 2.6 0.00 0.00 0.00 26 1017.2
20260506213720 63 349 1.7 7.0 0.00 0.00 0.00 25 1017.3
20260506212721 64 351 0.9 2.6 0.00 0.00 0.00 26 1017.3
20260506212220 65 320 0.9 2.6 0.00 0.00 0.00 25 1017.4
20260506211720 64 344 0.9 2.6 0.00 0.00 0.00 25 1017.4
20260506211222 63 344 0.9 4.3 0.00 0.00 0.00 26 1017.5
20260506210720 63 347 1.7 2.6 0.00 0.00 0.00 26 1017.6
20260506210220 64 330 2.6 6.1 0.00 0.00 0.00 25 1017.6
20260506205722 65 319 1.7 5.2 0.00 0.00 0.00 23 1017.7
20260506205220 65 258 2.6 11.3 0.00 0.00 0.00 24 1017.7
20260506204720 65 252 6.1 11.3 0.00 0.00 0.00 24 1017.8
20260506203720 63 323 0.9 2.6 0.00 0.00 0.00 26 1017.9
20260506203220 61 325 1.7 4.3 0.00 0.00 0.00 29 1018.0
20260506202722 61 320 0.9 5.2 0.00 0.00 0.00 27 1018.0
20260506202220 62 343 0.9 4.3 0.00 0.00 0.00 27 1018.1
20260506201719 62 329 1.7 5.2 0.00 0.00 0.00 26 1018.2
20260506201222 62 352 2.6 6.1 0.00 0.00 0.00 26 1018.3
20260506200720 63 293 0.9 2.6 0.00 0.00 0.00 27 1018.3
20260506200220 63 300 0.9 2.6 0.00 0.00 0.00 27 1018.4
20260506195722 63 292 0.9 5.2 0.00 0.00 0.00 26 1018.5
20260506195220 63 296 1.7 4.3 0.00 0.00 0.00 26 1018.5
20260506194720 63 298 1.7 2.6 0.00 0.00 0.00 27 1018.5
20260506194223 63 301 2.6 7.0 0.00 0.00 0.00 26 1018.4
20260506193720 65 254 2.6 7.0 0.00 0.00 0.00 24 1018.4
20260506193220 65 355 1.7 4.3 0.00 0.00 0.00 26 1018.5
20260506192721 64 234 2.6 5.2 0.00 0.00 0.00 25 1018.5
20260506191221 62 290 0.9 2.6 0.00 0.00 0.00 28 1018.5
20260506190719 62 288 2.6 8.7 0.00 0.00 0.00 27 1018.6
20260506190220 62 241 1.7 8.7 0.00 0.00 0.00 27 1018.7
20260506184720 62 319 0.9 5.2 0.00 0.00 0.00 28 1018.9
20260506184222 62 277 0.9 4.3 0.00 0.00 0.00 26 1018.7
20260506183719 62 272 0.0 2.6 0.00 0.00 0.00 26 1018.8
20260506183220 62 353 2.6 7.0 0.00 0.00 0.00 28 1018.9
20260506182722 62 334 1.7 5.2 0.00 0.00 0.00 26 1018.9
20260506182219 63 320 0.9 5.2 0.00 0.00 0.00 26 1019.0
20260506181719 62 335 1.7 6.1 0.00 0.00 0.00 27 1019.1
20260506181222 62 333 1.7 6.1 0.00 0.00 0.00 25 1019.1